Overview Statistics Trail Chart Weather Telemetry Raw packets
 

This is the latest recevied weather packets stored in our database for station/object K3RUP-1. If no packets are shown the sender has not sent any weather packets the latest 10 day(s).

<< 93 94 95 96 97 98 99 >>
Time Temp. Humidity Pressure Rain* Wind** Luminosity Snow
1787999398 20.56° C 76% 1021.6 hPa 0 mm - 0 W/m² -
1787999097 20.56° C 76% 1021.9 hPa 0 mm - 0 W/m² -
1787998792 20.56° C 77% 1021.6 hPa 0 mm - 0 W/m² -
1787998490 20.56° C 76% 1021.7 hPa 0 mm - 0 W/m² -
1787998190 20.56° C 78% 1021.4 hPa 0 mm - 0 W/m² -
1787997885 20.56° C 77% 1021.2 hPa 0 mm - 0 W/m² -
1787997583 20.56° C 80% 1021.5 hPa 0 mm - 0 W/m² -
1787997283 21.11° C 80% 1021.4 hPa 0 mm - 0 W/m² -
1787996978 21.11° C 78% 1021.5 hPa 0 mm - 0 W/m² -
1787996672 21.11° C 76% 1021.4 hPa 0 mm - 0 W/m² -
1787996368 21.11° C 79% 1021.5 hPa 0 mm - 0 W/m² -
1787996067 21.67° C 80% 1021.4 hPa 0 mm - 0 W/m² -
1787995762 21.11° C 80% 1021.3 hPa 0 mm - 0 W/m² -
1787995458 21.67° C 82% 1021.1 hPa 0 mm - 0 W/m² -
1787995155 21.67° C 82% 1020.8 hPa 0 mm - 0 W/m² -
1787994849 21.67° C 82% 1021.1 hPa 0 mm - 0 W/m² -
1787994547 21.67° C 82% 1020.9 hPa 0 mm - 0 W/m² -
1787994242 21.67° C 82% 1021 hPa 0 mm - 0 W/m² -
1787993940 21.67° C 82% 1020.9 hPa 0 mm - 0 W/m² -
1787993634 21.67° C 83% 1020.7 hPa 0 mm - 0 W/m² -
1787993330 21.67° C 84% 1020.6 hPa 0 mm - 0 W/m² -
1787993025 21.67° C 84% 1020.8 hPa 0 mm - 0 W/m² -
1787992720 21.67° C 86% 1020.8 hPa 0 mm - 0 W/m² -
1787992419 21.67° C 88% 1020.6 hPa 0 mm - 0 W/m² -
1787992114 20.56° C 91% 1020.4 hPa 0 mm - 0 W/m² -

* Rain latest hour (hover to see other rain measurements)
** Current wind speed in m/s (hover to see current wind gust speed)